Regional Weather Roundup
Issued by NWS

Home | Current Version | Previous Version | Graphics & Text | Print | Product List | Glossary On
Versions: 1 2 3 4 5 6 7 8 9 10 11 12 13 14 15 16 17 18 19 20 21 22 23 24 25 26 27 28 29 30 31 32 33 34 35 36 37 38 39 40 41 42 43 44 45 46 47 48 49 50
000
ASUS43 KLOT 060408
RWRIL

ILLINOIS REGIONAL WEATHER ROUNDUP
NATIONAL WEATHER SERVICE CHICAGO/ROMEOVILLE IL
1000 PM CST MON DEC 05 2016

NOTE: "FAIR" INDICATES FEW OR NO CLOUDS BELOW 12,000 FEET WITH NO
SIGNIFICANT WEATHER AND/OR OBSTRUCTIONS TO VISIBILITY.

* THESE STATIONS ARE NOT UNDER NWS QUALITY CONTROL. THEY ALSO MAY NOT
  REPORT WEATHER SUCH AS PRECIPITATION OR FOG.

ILZ001-002-007-009-015-016-024-060500-
NORTHWEST ILLINOIS

CITY           SKY/WX    TMP DP  RH WIND       PRES   REMARKS
MOLINE         CLOUDY    34  30  85 SE13      29.87F WCI  25
STERLING*      CLOUDY    32  30  92 SE9       29.91F WCI  24
SAVANNA*       CLOUDY    32  29  91 SE10      29.90S WCI  23
$$

ILZ003-004-008-010-011-017-018-060500-
NORTH CENTRAL ILLINOIS

CITY           SKY/WX    TMP DP  RH WIND       PRES   REMARKS
ROCKFORD       CLOUDY    31  29  92 SE13      29.93F FOG     WCI  21
FREEPORT*      CLOUDY    29  28  96 SE13      29.91F FOG     WCI  19
ROCHELLE*      FOG       31  31 100 SE12      29.92F VSB 1   WCI  22
DE KALB*       FOG       31  30  98 SE7       29.93F VSB 3/4 WCI  24
$$

ILZ005-006-012>014-019>023-060500-
NORTHEAST ILLINOIS

CITY           SKY/WX    TMP DP  RH WIND       PRES   REMARKS
CHICAGO-OHARE  CLOUDY    32  30  92 SE8       29.95F FOG     WCI  25
CHICAGO-MIDWAY CLOUDY    34  30  85 E8        29.96F FOG     WCI  27
AURORA         CLOUDY    33  31  92 E8        29.94F FOG     WCI  26
LANSING*       CLOUDY    32  32  99 E6        29.96F FOG     WCI  27
JOLIET*        CLOUDY    34  33  97 E7        29.94F FOG     WCI  28
WAUKEGAN       CLOUDY    34  32  92 S9        29.95S FOG     WCI  27
DUPAGE AIRPORT CLOUDY    32  28  85 E6        29.93F FOG     WCI  26
KANKAKEE*      CLOUDY    30  29  96 CALM      29.93F FOG
WHEELING       CLOUDY    32  30  92 SE7       29.97F WCI  26
MORRIS*        CLOUDY    33  32  98 E9        29.92F FOG     WCI  25
ROMEOVILLE*    CLOUDY    32  32 100 E7        29.94F FOG     WCI  26
NORTHERLY ISL    N/A     35  33  92 E8          N/A  WCI  29
$$

LMZ740>746-060500-
SOUTHERN LAKE MICHIGAN

STATION/POSITION SKY/WX   TEMP    WIND        PRES    VSBY  WAVE
                          AIR SEA DIR/SP/G                  HT/PER
                          (F)     (DEG/KT/KT) (MB)    (MI)  (FT/S)
HARRISON CRIB              36     160/ 13/ 15   N/A
BURNHAM HARBOR             34     120/  8/ 10   N/A
CALUMET HARBOR             35     110/  9/ 11 1014.3F
BURNS HARBOR               33     100/ 10/ 12 1015.6F
$$

ILZ025>027-034>036-040-047-049-050-058-095>099-060500-
WEST-CENTRAL ILLINOIS

CITY           SKY/WX    TMP DP  RH WIND       PRES   REMARKS
QUINCY         MOCLDY    35  34  96 SE12      29.82F FOG     WCI  27
GALESBURG*     CLOUDY    35  33  94 E9        29.86S WCI  27
MACOMB*        CLOUDY    36  35  96 SE12      29.88S WCI  28
JACKSONVILLE*  MOCLDY    33  32  98 E9        29.85F FOG     WCI  25
PITTSFIELD*    CLOUDY    36  35  96 SE14      29.84F WCI  27
$$

ILZ028>032-037-038-041>044-048-051>054-059>061-060500-
CENTRAL ILLINOIS

CITY           SKY/WX    TMP DP  RH WIND       PRES   REMARKS
PONTIAC        FOG       32  32 100 E9        29.92S VSB 1/2 WCI  24
BLOOMINGTON    FOG       28  27  96 E8        29.89F VSB 1/4 WCI  20
DECATUR        PTCLDY    32  30  92 E5        29.89S WCI  27
PEORIA         PTCLDY    34  34 100 E7        29.89F WCI  28
LACON*         FOG       32  32 100 E6        29.91R VSB 1   WCI  27
LINCOLN*       CLEAR     32  32 100 E3        29.88F FOG
SPRINGFIELD    CLEAR     32  30  92 E6        29.87F FOG     WCI  26
TAYLORVILLE    CLOUDY    33  33  96 E5        29.87S FOG     WCI  29
$$

ILZ033-039-045-046-055>057-062-063-060500-
EAST-CENTRAL ILLINOIS

CITY           SKY/WX    TMP DP  RH WIND       PRES   REMARKS
CHAMPAIGN      PTCLDY    35  31  85 E10       29.89F WCI  27
RANTOUL*       PTCLDY    34  33  96 E7        29.90F WCI  28
MATTOON        PTCLDY    35  31  85 E5        29.87F WCI  31
PARIS*         PTCLDY    34  33  94 E7        29.89F WCI  28
$$

ILZ079-100>102-060500-
SOUTHWEST ILLINOIS

CITY           SKY/WX    TMP DP  RH WIND       PRES   REMARKS
ALTON          CLOUDY    37  34  87 E7        29.87S WCI  32
BELLEVILLE     CLOUDY    38  38  99 NE5       29.83F WCI  35
CAHOKIA*       CLOUDY    37  33  85 E5        29.84F WCI  33
SPARTA*        CLOUDY    38  36  89 E5        29.84F WCI  35
$$

ILZ064>066-069>071-074>076-080>082-084>086-088>090-092>094-060500-
SOUTH-CENTRAL ILLINOIS

CITY           SKY/WX    TMP DP  RH WIND       PRES   REMARKS
CARBONDALE     CLOUDY    40  37  89 CALM      29.83F
CAIRO*         CLOUDY    41  38  90 NE6       29.80F
EFFINGHAM*     PTCLDY    37  36  96 E5        29.89R WCI  33
CENTRALIA*     CLOUDY    38  36  94 CALM      29.85R
SALEM*         CLOUDY    38  34  87 E3        29.86R
METROPOLIS*    CLOUDY    42  38  86 CALM      29.81F
$$

ILZ067-068-072-073-078-083-087-091-060500-
SOUTHEAST ILLINOIS

CITY           SKY/WX    TMP DP  RH WIND       PRES   REMARKS
LAWRENCEVILLE  CLOUDY    38  34  85 E7        29.87F WCI  33
FLORA*         CLOUDY    37  35  90 NE5       29.86S WCI  34
FAIRFIELD*     CLOUDY    38  36  93 CALM      29.84S
HARRISBURG*    CLOUDY    41  37  88 E5        29.83F
ROBINSON*      CLOUDY    35  33  91 E3        29.89S
CARMI*         CLOUDY    41  37  87 E6        29.83F
$$

ABBREVIATIONS USED IN REMARKS
   TC - TEMPERATURE IN CELSIUS
  WCI - WIND CHILL INDEX
   HX - HEAT INDEX
  VSB - VISIBILITY
$$





USA.gov is the U.S. government's official web portal to all federal, state and local government web resources and services.